KB1JDX Weather Reports


time (UTC)temp
C
wind
direction
speed
KPH
gust
KPH
rain 1hr
cm
rain 24hr
cm
rain mn
cm
humidity
%
barometer
mb
20260903195206 26 209 0.0 0.0 0.00 0.00 0.00 6 1011.6
20260903193205 25 209 0.0 0.0 0.00 0.00 0.00 100 1012.0
20260903193102 25 209 0.0 0.0 0.00 0.00 0.00 100 1012.0
20260903191205 26 210 0.0 0.0 0.00 0.00 0.00 4 1012.1
20260903185205 26 210 0.0 0.0 0.00 0.00 0.00 2 1012.3
20260903183205 26 210 0.0 0.0 0.00 0.00 0.00 8 1012.3
20260903183102 26 210 0.0 0.0 0.00 0.00 0.00 7 1012.3
20260903181205 26 210 0.0 0.0 0.00 0.00 0.00 100 1012.6
20260903175205 26 209 0.0 16.1 0.00 0.00 0.00 100 1012.7
20260903173206 25 213 0.0 16.1 0.00 0.00 0.00 100 1012.5
20260903173103 25 213 0.0 16.1 0.00 0.00 0.00 100 1012.6
20260903171205 25 214 0.0 16.1 0.00 0.00 0.00 100 1012.8
20260903165205 24 213 6.4 12.9 0.00 0.00 0.00 100 1013.1
20260903163102 23 215 0.0 12.9 0.00 0.00 0.00 100 1013.0
20260903161205 23 205 0.0 12.9 0.00 0.00 0.00 100 1013.0
20260903155205 22 229 0.0 11.3 0.00 0.00 0.00 100 1013.2
20260903153205 22 218 0.0 11.3 0.00 0.00 0.00 100 1013.2
20260903153102 22 218 0.0 11.3 0.00 0.00 0.00 100 1013.2
20260903151205 21 218 0.0 11.3 0.00 0.00 0.00 100 1013.3
20260903145205 21 188 0.0 0.0 0.00 0.00 0.00 100 1013.4
20260903143102 20 184 0.0 0.0 0.00 0.00 0.00 100 1013.5
20260903141206 20 184 0.0 0.0 0.00 0.00 0.00 100 1014.1
20260903135205 20 184 0.0 0.0 0.00 0.00 0.00 100 1014.3
20260903133102 19 184 0.0 0.0 0.00 0.00 0.00 100 1014.5
20260903131205 18 184 0.0 0.0 0.00 0.00 0.00 100 1014.7
20260903125206 18 184 0.0 0.0 0.00 0.00 0.00 100 1014.8
20260903123205 18 184 0.0 0.0 0.00 0.00 0.00 100 1014.9
20260903123102 18 184 0.0 0.0 0.00 0.00 0.00 100 1014.9
20260903115207 18 184 0.0 0.0 0.00 0.00 0.00 100 1015.0
20260903113205 18 184 0.0 0.0 0.00 0.00 0.00 100 1015.2
20260903113102 18 184 0.0 0.0 0.00 0.00 0.00 100 1015.2
20260903111205 18 184 0.0 0.0 0.00 0.00 0.00 100 1015.1
20260903103205 18 184 0.0 0.0 0.00 0.00 0.00 100 1014.7
20260903103102 18 184 0.0 0.0 0.00 0.00 0.00 100 1014.7
20260903101205 18 184 0.0 0.0 0.00 0.00 0.00 100 1014.7
20260903095205 18 184 0.0 0.0 0.00 0.00 0.00 100 1014.4
20260903093206 17 184 0.0 0.0 0.00 0.00 0.00 100 1014.7
20260903093102 17 184 0.0 0.0 0.00 0.00 0.00 100 1014.8
20260903091206 17 184 0.0 0.0 0.00 0.00 0.00 100 1014.9
20260903085205 17 184 0.0 0.0 0.00 0.00 0.00 100 1015.0
20260903083206 17 184 0.0 0.0 0.00 0.00 0.00 100 1015.0
20260903083102 17 184 0.0 0.0 0.00 0.00 0.00 100 1015.0
20260903081205 17 183 0.0 0.0 0.00 0.00 0.00 100 1015.2
20260903075205 17 183 0.0 0.0 0.00 0.00 0.00 100 1015.6
20260903073206 17 183 0.0 0.0 0.00 0.00 0.00 100 1015.7
20260903073102 17 183 0.0 0.0 0.00 0.00 0.00 100 1015.7
20260903071204 17 183 0.0 0.0 0.00 0.00 0.00 100 1015.8
20260903065206 17 183 0.0 0.0 0.00 0.00 0.00 100 1016.2
20260903063205 17 183 0.0 0.0 0.00 0.00 0.00 100 1016.6
20260903063102 17 183 0.0 0.0 0.00 0.00 0.00 100 1016.6
20260903061206 17 183 0.0 0.0 0.00 0.00 0.00 100 1017.3
20260903055205 17 183 0.0 0.0 0.00 0.00 0.00 100 1017.5
20260903053102 17 183 0.0 0.0 0.00 0.00 0.00 100 1017.7
20260903051205 17 183 0.0 0.0 0.00 0.00 0.00 100 1018.2
20260903045206 17 183 0.0 0.0 0.00 0.00 0.00 100 1018.4
20260903043242 17 183 0.0 0.0 0.00 0.00 0.00 100 1018.1
20260903043207 17 183 0.0 0.0 0.00 0.00 0.00 100 1018.1
20260903043103 17 183 0.0 0.0 0.00 0.00 0.00 100 1018.2
20260903041205 17 183 0.0 0.0 0.00 0.00 0.00 100 1018.3
20260903035205 17 183 0.0 0.0 0.00 0.00 0.00 100 1018.3
20260903033206 18 183 0.0 0.0 0.00 0.00 0.00 100 1018.1
20260903033102 18 183 0.0 0.0 0.00 0.00 0.00 100 1018.1
20260903031205 18 183 0.0 0.0 0.00 0.00 0.00 100 1018.5
20260903025205 18 183 0.0 0.0 0.00 0.00 0.00 100 1019.1
20260903023205 18 183 0.0 0.0 0.00 0.00 0.00 100 1019.4
20260903023102 18 183 0.0 0.0 0.00 0.00 0.00 100 1019.3
20260903021205 18 183 0.0 0.0 0.00 0.00 0.00 100 1019.5
20260903015207 18 183 0.0 0.0 0.00 0.00 0.00 100 1019.1
20260903013102 18 183 0.0 0.0 0.00 0.00 0.00 100 1019.1
20260903011205 18 183 0.0 0.0 0.00 0.00 0.00 100 1019.1
20260903005205 19 183 0.0 0.0 0.00 0.00 0.00 100 1019.3
20260903003206 19 183 0.0 0.0 0.00 0.00 0.00 100 1019.4
20260903003102 19 183 0.0 0.0 0.00 0.00 0.00 100 1019.4
20260903001205 19 183 0.0 0.0 0.00 0.00 0.00 100 1019.4
20260902235205 20 183 0.0 0.0 0.00 0.00 0.00 100 1019.6
20260902233205 20 183 0.0 0.0 0.00 0.00 0.00 11 1020.1
20260902233102 20 183 0.0 0.0 0.00 0.00 0.00 11 1020.2
20260902231205 20 183 0.0 0.0 0.00 0.00 0.00 23 1020.1
20260902225206 20 183 0.0 0.0 0.00 0.00 0.00 33 1020.3
20260902223205 21 183 0.0 0.0 0.00 0.00 0.00 44 1020.6
20260902223102 21 183 0.0 0.0 0.00 0.00 0.00 44 1020.7
20260902221205 21 183 0.0 0.0 0.00 0.00 0.00 48 1020.3
20260902215205 21 183 0.0 8.0 0.00 0.00 0.00 51 1020.1
20260902213205 21 183 0.0 8.0 0.00 0.00 0.00 52 1019.7
20260902213102 21 183 0.0 8.0 0.00 0.00 0.00 52 1019.6
20260902211205 22 178 0.0 8.0 0.00 0.00 0.00 51 1019.3
20260902205204 22 184 0.0 6.4 0.00 0.00 0.00 51 1019.5
20260902203205 22 197 0.0 6.4 0.00 0.00 0.00 51 1020.0
20260902203102 22 197 0.0 6.4 0.00 0.00 0.00 51 1020.0